When you browse on this site, cookies collect data to enhance your experience and personalize the content and advertising you see.
Visit our Privacy Policy to learn more. By continuing to use the site, you agree to this use of cookies and data.
  • In Romania
  • List of Countries
  • For 7 days
  • Water Temperature
  • Satellite Maps
  • Weather Map
  • Weather Widgets
  • user-avatar
    Login

    Hourly Weather Bolow

    Today, 9 December, Sunday

    Time Temperature Precipitation Wind Pressure Humidity
    00:00 +1°C° 0 mm 5 mps 732 mmHg 79%
    01:00 +1°C° 0 mm 4 mps 731 mmHg 81%
    02:00 +1°C° 0 mm 4 mps 731 mmHg 82%
    03:00 +1°C° 0 mm 4 mps 730 mmHg 83%
    04:00 +1°C° 0 mm 4 mps 729 mmHg 84%
    05:00 +1°C° 0 mm 5 mps 729 mmHg 82%
    06:00 +1°C° 0 mm 5 mps 728 mmHg 81%
    07:00 0°C° 0 mm 4 mps 727 mmHg 83%
    08:00 +1°C° 0.6 mm 4 mps 727 mmHg 79%
    09:00 +2°C° 0.6 mm 5 mps 726 mmHg 76%
    10:00 +3°C° 0.6 mm 6 mps 726 mmHg 73%
    11:00 +4°C° 0.2 mm 6 mps 726 mmHg 71%
    12:00 +4°C° 0.2 mm 7 mps 725 mmHg 70%
    13:00 +6°C° 0 mm 5 mps 725 mmHg 69%
    14:00 +5°C° 0.4 mm 5 mps 725 mmHg 72%
    15:00 +5°C° 0.4 mm 5 mps 725 mmHg 76%
    16:00 +3°C° 0.4 mm 5 mps 726 mmHg 79%
    17:00 +3°C° 0.1 mm 5 mps 726 mmHg 80%
    18:00 +3°C° 0.1 mm 5 mps 726 mmHg 80%
    19:00 +3°C° 0.1 mm 5 mps 726 mmHg 81%
    20:00 +3°C° 0 mm 5 mps 727 mmHg 82%
    21:00 +3°C° 0 mm 5 mps 727 mmHg 82%
    22:00 +4°C° 0 mm 4 mps 727 mmHg 83%
    23:00 +4°C° 0.1 mm 4 mps 727 mmHg 84%

    Tomorrow, 10 December, Monday

    Time Temperature Precipitation Wind Pressure Humidity
    00:00 +4°C° 0.1 mm 4 mps 727 mmHg 84%
    01:00 +2°C° 0.1 mm 5 mps 727 mmHg 85%
    02:00 +3°C° 0.2 mm 5 mps 728 mmHg 84%
    03:00 +3°C° 0.2 mm 5 mps 728 mmHg 83%
    04:00 +3°C° 0.2 mm 6 mps 728 mmHg 83%
    05:00 +2°C° 0.2 mm 6 mps 728 mmHg 81%
    06:00 +2°C° 0.2 mm 6 mps 728 mmHg 79%
    07:00 +2°C° 0.2 mm 7 mps 729 mmHg 77%
    08:00 +2°C° 0.2 mm 7 mps 729 mmHg 76%
    09:00 +2°C° 0.2 mm 7 mps 730 mmHg 75%
    10:00 +2°C° 0.2 mm 7 mps 731 mmHg 74%
    11:00 +2°C° 0.1 mm 7 mps 731 mmHg 72%
    12:00 +2°C° 0.1 mm 7 mps 731 mmHg 70%
    13:00 +2°C° 0.1 mm 7 mps 732 mmHg 68%
    14:00 +2°C° 0.2 mm 6 mps 732 mmHg 70%
    15:00 +1°C° 0.2 mm 5 mps 733 mmHg 72%
    16:00 +1°C° 0.2 mm 5 mps 733 mmHg 74%
    17:00 0°C° 0.1 mm 5 mps 733 mmHg 75%
    18:00 0°C° 0.1 mm 5 mps 733 mmHg 77%
    19:00 0°C° 0.1 mm 5 mps 734 mmHg 78%
    20:00 -1°C° 0 mm 4 mps 734 mmHg 80%
    21:00 -1°C° 0 mm 4 mps 734 mmHg 82%
    22:00 -2°C° 0 mm 4 mps 734 mmHg 83%
    23:00 -2°C° 0 mm 4 mps 734 mmHg 84%

    Day after tomorrow, 11 December, Tuesday

    Time Temperature Precipitation Wind Pressure Humidity
    00:00 -2°C° 0 mm 4 mps 734 mmHg 84%
    01:00 -2°C° 0 mm 4 mps 735 mmHg 85%
    02:00 -2°C° 0 mm 4 mps 734 mmHg 86%
    03:00 -1°C° 0 mm 3 mps 734 mmHg 86%
    04:00 -1°C° 0 mm 3 mps 734 mmHg 87%
    05:00 -1°C° 0 mm 3 mps 734 mmHg 87%
    06:00 -2°C° 0 mm 3 mps 734 mmHg 87%
    07:00 -2°C° 0 mm 3 mps 734 mmHg 87%
    08:00 -2°C° 0.1 mm 4 mps 734 mmHg 84%
    09:00 -1°C° 0.1 mm 4 mps 734 mmHg 81%
    10:00 0°C° 0.1 mm 4 mps 735 mmHg 78%
    11:00 0°C° 0.2 mm 4 mps 734 mmHg 78%
    12:00 0°C° 0.2 mm 4 mps 734 mmHg 78%
    13:00 +1°C° 0.2 mm 4 mps 734 mmHg 78%
    14:00 +1°C° 0.2 mm 3 mps 734 mmHg 80%
    15:00 +1°C° 0.2 mm 3 mps 734 mmHg 83%
    16:00 +1°C° 0.2 mm 2 mps 734 mmHg 85%
    17:00 +1°C° 0.2 mm 2 mps 735 mmHg 86%
    18:00 +1°C° 0.2 mm 2 mps 735 mmHg 87%
    19:00 +1°C° 0.2 mm 2 mps 735 mmHg 88%
    20:00 +1°C° 0.2 mm 2 mps 735 mmHg 89%
    21:00 +1°C° 0.2 mm 2 mps 735 mmHg 90%
    22:00 -1°C° 0.2 mm 2 mps 735 mmHg 91%
    23:00 +1°C° 0.1 mm 1 mps 736 mmHg 92%

    12 December, Wednesday

    Time Temperature Precipitation Wind Pressure Humidity
    00:00 +1°C° 0.1 mm 1 mps 736 mmHg 93%
    01:00 +1°C° 0.1 mm 1 mps 736 mmHg 93%
    02:00 +1°C° 0 mm 1 mps 737 mmHg 93%
    03:00 +1°C° 0 mm 1 mps 737 mmHg 93%
    04:00 +1°C° 0 mm 1 mps 737 mmHg 93%
    05:00 +1°C° 0.1 mm 1 mps 737 mmHg 94%
    06:00 +1°C° 0.1 mm 1 mps 738 mmHg 94%
    07:00 +1°C° 0.1 mm 1 mps 738 mmHg 94%
    08:00 +1°C° 0 mm 1 mps 739 mmHg 93%
    09:00 +2°C° 0 mm 1 mps 739 mmHg 92%
    10:00 +2°C° 0 mm 1 mps 739 mmHg 91%
    11:00 +2°C° 0 mm 1 mps 739 mmHg 90%
    12:00 +2°C° 0 mm 1 mps 740 mmHg 89%
    13:00 +3°C° 0 mm 1 mps 740 mmHg 87%
    14:00 +2°C° 0 mm 1 mps 740 mmHg 89%
    15:00 +2°C° 0 mm 1 mps 740 mmHg 90%
    16:00 +1°C° 0 mm 1 mps 740 mmHg 92%
    17:00 +1°C° 0 mm 1 mps 741 mmHg 92%
    18:00 0°C° 0 mm 1 mps 741 mmHg 93%
    19:00 0°C° 0 mm 1 mps 741 mmHg 93%
    20:00 0°C° 0 mm 1 mps 741 mmHg 93%
    21:00 0°C° 0 mm 1 mps 741 mmHg 93%
    22:00 0°C° 0 mm 1 mps 742 mmHg 93%
    23:00 0°C° 0 mm 1 mps 742 mmHg 94%

    13 December, Thursday

    Time Temperature Precipitation Wind Pressure Humidity
    00:00 -1°C° 0 mm 1 mps 742 mmHg 94%
    01:00 -1°C° 0 mm 1 mps 742 mmHg 94%
    02:00 -1°C° 0 mm 1 mps 742 mmHg 94%
    03:00 -3°C° 0 mm 2 mps 742 mmHg 94%
    04:00 -3°C° 0 mm 2 mps 741 mmHg 94%
    05:00 -3°C° 0 mm 2 mps 741 mmHg 94%
    06:00 -3°C° 0 mm 2 mps 741 mmHg 93%
    07:00 -3°C° 0 mm 2 mps 741 mmHg 93%
    08:00 -2°C° 0 mm 2 mps 741 mmHg 91%
    09:00 -2°C° 0 mm 2 mps 741 mmHg 89%
    10:00 -1°C° 0 mm 2 mps 741 mmHg 86%
    11:00 -1°C° 0 mm 3 mps 741 mmHg 85%
    12:00 -1°C° 0 mm 3 mps 741 mmHg 83%
    13:00 -1°C° 0 mm 3 mps 741 mmHg 81%
    14:00 -1°C° 0 mm 2 mps 741 mmHg 83%
    15:00 -1°C° 0 mm 2 mps 740 mmHg 85%
    16:00 -2°C° 0 mm 2 mps 740 mmHg 87%
    17:00 -2°C° 0 mm 2 mps 740 mmHg 88%
    18:00 0°C° 0 mm 1 mps 740 mmHg 90%
    19:00 0°C° 0 mm 1 mps 740 mmHg 91%
    20:00 -1°C° 0 mm 1 mps 740 mmHg 91%
    21:00 -1°C° 0 mm 1 mps 740 mmHg 92%
    22:00 -1°C° 0 mm 1 mps 740 mmHg 92%
    23:00 -1°C° 0 mm 1 mps 740 mmHg 92%

    14 December, Friday

    Time Temperature Precipitation Wind Pressure Humidity
    00:00 -1°C° 0 mm 1 mps 740 mmHg 93%
    01:00 -2°C° 0 mm 1 mps 740 mmHg 93%
    02:00 -1°C° 0 mm 1 mps 740 mmHg 92%
    03:00 -1°C° 0 mm 1 mps 740 mmHg 92%
    04:00 -1°C° 0 mm 1 mps 740 mmHg 92%
    05:00 -1°C° 0 mm 1 mps 740 mmHg 92%
    06:00 -2°C° 0 mm 1 mps 740 mmHg 92%
    07:00 -2°C° 0 mm 1 mps 741 mmHg 92%
    08:00 -1°C° 0 mm 1 mps 741 mmHg 90%
    09:00 -1°C° 0 mm 1 mps 741 mmHg 88%
    10:00 -1°C° 0 mm 0 mps 741 mmHg 86%
    11:00 -1°C° 0 mm 0 mps 741 mmHg 85%
    12:00 0°C° 0 mm 0 mps 741 mmHg 84%
    13:00 0°C° 0 mm 0 mps 741 mmHg 83%
    14:00 -1°C° 0 mm 0 mps 741 mmHg 85%
    15:00 0°C° 0 mm 1 mps 741 mmHg 88%
    16:00 0°C° 0 mm 1 mps 741 mmHg 90%
    17:00 0°C° 0 mm 1 mps 741 mmHg 91%
    18:00 0°C° 0 mm 1 mps 741 mmHg 91%
    19:00 0°C° 0 mm 1 mps 741 mmHg 91%
    20:00 0°C° 0 mm 1 mps 741 mmHg 91%
    21:00 -1°C° 0 mm 1 mps 741 mmHg 92%
    22:00 -1°C° 0 mm 1 mps 741 mmHg 92%
    23:00 -1°C° 0 mm 1 mps 741 mmHg 91%
    Show more